Location: Newark
(42.8481°N, 0.4872°E)
Time: 16:28:09
(UTC+00:00)

A-11 Canister half - Pass Details

Date: 29 October 2020
Orbit: 1525 x 1683 km, 47.3° (Epoch: 22 November)

Event Time Altitude Azimuth Distance (km) Brightness Sun altitude
Rises 13:50:11 0° 228° (SW) 4,810 12.8 26.2°
Reaches altitude 10° 13:53:21 10° 226° (SW) 3,805 12.8 25.9°
Maximum altitude 14:02:51 67° 146° (SSE) 1,675 9.8 24.8°
Drops below altitude 10° 14:12:05 10° 67° (ENE) 3,712 10.6 23.8°
Sets 14:15:08 0° 65° (ENE) 4,687 11.0 23.4°
